Track NAVSTAR 60 (USA 196) now! NAVSTAR 60 (USA 196) is classified as:
1 32260U 07047A 25187.21228042 -.00000055 00000-0 00000-0 0 9996 2 32260 53.8403 94.3508 0162225 81.9711 279.8777 2.00571346129874